User: anonymous   Login
Location: Unspecified
(0.0000°N, 0.0000°E)
Time: 15:10:44
(UTC+00:00)
Language:

Transit 2A Rocket - Orbit

View from above orbital plane
View from above orbital plane
View from above satellite
View from above satellite

Ground track
Ground track

The orbit data is extracted from the following two-line orbital elements,

1 00047U 60007C   15215.20719180  .00000065  00000-0  39777-4 0  9994
2 00047 066.6641 233.9849 0227334 167.3810 193.3122 14.41672464878460
Epoch (UTC): 03 August 2015 04:58:21
Eccentricity: 0.0227334
inclination: 66.6641°
perigee height: 591 km
apogee height: 915 km
right ascension of ascending node: 233.9849°
argument of perigee: 167.3810°
revolutions per day: 14.41672464
mean anomaly at epoch: 193.3122°
orbit number at epoch: 87846

The dashed part of the orbit path shows where the satellite is in the earth's shadow,  

DLR